Weather History for Galliano, LA

Change the Weather History Date:

Friday, March 15, 2013

  Actual Average (KAXO) Record (KAXO)
Temperature  
Mean Temperature 58 °F -  
Max Temperature 73 °F 63 °F 78 °F (2012)
Min Temperature 42 °F 58 °F 44 °F (1999)
Degree Days  
Heating Degree Days 8    
Growing Degree Days 8 (Base 50)    
Moisture  
Dew Point 46 °F    
Average Humidity 71    
Maximum Humidity 96    
Minimum Humidity 30    
Precipitation  
Precipitation 0.00 in - - ()
Sea Level Pressure  
Sea Level Pressure 30.25 in    
Wind  
Wind Speed 2 mph (South)    
Max Wind Speed 14 mph    
Max Gust Speed 17 mph    
Visibility 10 miles    
Events      
Averages and records for this station are not official NWS values.
T = Trace of Precipitation, MM = Missing Value Source: NWS Daily Summary

Daily Weather History Graph

Daily Weather History Graph

Search for Another Location

Airport:

Trip Planner

Search our weather history database for the weather conditions in past years. The results will help you decide how hot, cold, wet, or windy it might be!

Date:

Astronomy

Mar. 15, 2013 Rise Set
Actual Time 7:10 AM CDT 7:09 PM CDT
Civil Twilight 6:46 AM CDT 7:33 PM CDT
Nautical Twilight 6:19 AM CDT 8:00 PM CDT
Astronomical Twilight 5:51 AM CDT 8:28 PM CDT
Moon 9:20 AM CDT (3/15) 11:01 PM CDT (3/15)
Length of Visible Light 12h 46m
Length of Day
11h 59m
Waxing Crescent, 15% of the Moon is Illuminated
Mar 15
Waxing Crescent
Mar 19
First Quarter
Mar 27
Full
Apr 2
Last Quarter
Apr 10
New

Hourly Weather History & Observations

Time (CDT) Temp. Windchill Dew Point Humidity Pressure Visibility Wind Dir Wind Speed Gust Speed Precip Events Conditions
12:15 AM 45.9 °F - 42.4 °F 88% 30.33 in 10.0 mi Calm Calm - N/A   Unknown
12:35 AM 45.7 °F - 42.4 °F 88% 30.32 in 10.0 mi Calm Calm - N/A   Unknown
1:15 AM 44.6 °F - 42.1 °F 91% 30.32 in 10.0 mi Calm Calm - N/A   Unknown
1:35 AM 43.9 °F - 41.5 °F 91% 30.31 in 10.0 mi Calm Calm - N/A   Unknown
1:55 AM 44.4 °F - 42.3 °F 92% 30.31 in 10.0 mi Calm Calm - N/A   Unknown
2:15 AM 44.6 °F - 42.4 °F 92% 30.30 in 10.0 mi Calm Calm - N/A   Unknown
2:35 AM 43.3 °F - 41.2 °F 92% 30.29 in 10.0 mi Calm Calm - N/A   Unknown
2:55 AM 43.2 °F - 41.9 °F 95% 30.28 in 10.0 mi Calm Calm - N/A   Unknown
3:15 AM 42.8 °F - 41.2 °F 94% 30.28 in 10.0 mi Calm Calm - N/A   Unknown
3:35 AM 43.7 °F - 42.1 °F 94% 30.27 in 10.0 mi Calm Calm - N/A   Unknown
3:55 AM 43.0 °F - 41.0 °F 93% 30.27 in 10.0 mi Calm Calm - N/A   Unknown
4:15 AM 43.3 °F - 41.4 °F 93% 30.27 in 10.0 mi Calm Calm - N/A   Unknown
4:35 AM 43.0 °F - 41.0 °F 93% 30.27 in 10.0 mi Calm Calm - N/A   Unknown
4:55 AM 44.1 °F - 42.1 °F 93% 30.27 in 10.0 mi Calm Calm - N/A   Unknown
5:15 AM 43.2 °F - 41.4 °F 93% 30.27 in 10.0 mi Calm Calm - N/A   Unknown
5:35 AM 43.2 °F - 41.4 °F 93% 30.27 in 1.8 mi Calm Calm - N/A   Mist
5:55 AM 44.1 °F - 42.6 °F 95% 30.27 in 7.0 mi Calm Calm - N/A   Unknown
6:15 AM 42.1 °F 40.2 °F 40.3 °F 93% 30.27 in 10.0 mi South 3.5 mph - N/A   Unknown
6:35 AM 43.0 °F - 41.9 °F 96% 30.27 in 10.0 mi Calm Calm - N/A   Unknown
6:55 AM 42.3 °F - 40.8 °F 95% 30.28 in 10.0 mi Calm Calm - N/A   Unknown
7:15 AM 42.8 °F - 41.0 °F 93% 30.29 in 10.0 mi Calm Calm - N/A   Unknown
7:35 AM 43.2 °F - 41.0 °F 92% 30.29 in 10.0 mi Calm Calm - N/A   Unknown
7:55 AM 45.0 °F - 43.0 °F 93% 30.30 in 10.0 mi Calm Calm - N/A   Unknown
8:15 AM 49.6 °F - 48.2 °F 95% 30.30 in 10.0 mi Calm Calm - N/A   Unknown
8:35 AM 54.7 °F - 53.2 °F 95% 30.31 in 10.0 mi Calm Calm - N/A   Unknown
8:55 AM 59.2 °F - 55.6 °F 88% 30.31 in 10.0 mi Calm Calm - N/A   Unknown
9:15 AM 62.8 °F - 55.2 °F 76% 30.32 in 10.0 mi Calm Calm - N/A   Unknown
9:35 AM 64.9 °F - 52.7 °F 64% 30.32 in 10.0 mi SSE 8.1 mph - N/A   Unknown
10:55 AM 69.8 °F - 47.1 °F 44% 30.31 in 10.0 mi South 4.6 mph - N/A   Unknown
11:15 AM 70.3 °F - 45.9 °F 41% 30.31 in 10.0 mi South 6.9 mph - N/A   Unknown
11:35 AM 70.9 °F - 46.0 °F 41% 30.31 in 10.0 mi South 4.6 mph - N/A   Unknown
11:55 AM 71.2 °F - 46.2 °F 41% 30.30 in 10.0 mi South 6.9 mph - N/A   Unknown
12:15 PM 71.8 °F - 43.7 °F 36% 30.30 in 10.0 mi SSW 6.9 mph - N/A   Unknown
12:35 PM 72.0 °F - 43.2 °F 35% 30.30 in 10.0 mi South 9.2 mph - N/A   Unknown
12:55 PM 72.9 °F - 40.8 °F 31% 30.29 in 10.0 mi South 9.2 mph - N/A   Unknown
1:15 PM 72.3 °F - 39.6 °F 30% 30.28 in 10.0 mi SSE 8.1 mph - N/A   Unknown
1:35 PM 73.0 °F - 40.8 °F 31% 30.27 in 10.0 mi South 6.9 mph - N/A   Unknown
1:55 PM 72.9 °F - 39.4 °F 30% 30.25 in 10.0 mi South 9.2 mph 17.3 mph N/A   Unknown
2:15 PM 73.0 °F - 41.9 °F 33% 30.24 in 10.0 mi SSE 9.2 mph - N/A   Unknown
2:35 PM 72.5 °F - 45.9 °F 39% 30.23 in 10.0 mi South 10.4 mph - N/A   Unknown
2:55 PM 72.3 °F - 47.3 °F 41% 30.22 in 10.0 mi South 11.5 mph - N/A   Unknown
3:15 PM 72.3 °F - 49.5 °F 44% 30.21 in 10.0 mi SSW 12.7 mph - N/A   Unknown
3:35 PM 71.6 °F - 49.3 °F 45% 30.20 in 10.0 mi South 9.2 mph - N/A   Unknown
3:55 PM 70.9 °F - 46.6 °F 42% 30.20 in 10.0 mi South 12.7 mph - N/A   Unknown
4:15 PM 71.6 °F - 48.7 °F 44% 30.20 in 10.0 mi South 9.2 mph - N/A   Unknown
4:35 PM 71.1 °F - 48.6 °F 45% 30.19 in 10.0 mi South 9.2 mph - N/A   Unknown
4:55 PM 70.7 °F - 49.1 °F 46% 30.19 in 10.0 mi South 9.2 mph - N/A   Unknown
5:15 PM 70.7 °F - 49.6 °F 47% 30.18 in 10.0 mi South 9.2 mph - N/A   Unknown
5:35 PM 69.8 °F - 46.4 °F 43% 30.18 in 10.0 mi South 13.8 mph 17.3 mph N/A   Unknown
5:55 PM 68.9 °F - 48.0 °F 47% 30.18 in 10.0 mi South 11.5 mph - N/A   Unknown
6:15 PM 68.2 °F - 49.8 °F 52% 30.17 in 10.0 mi South 8.1 mph - N/A   Unknown
6:35 PM 66.9 °F - 50.0 °F 54% 30.17 in 10.0 mi South 10.4 mph - N/A   Unknown
6:55 PM 65.7 °F - 50.9 °F 59% 30.17 in 10.0 mi South 6.9 mph - N/A   Unknown
7:15 PM 64.4 °F - 50.9 °F 62% 30.17 in 10.0 mi South 5.8 mph - N/A   Unknown
7:35 PM 62.6 °F - 51.8 °F 68% 30.17 in 10.0 mi South 3.5 mph - N/A   Unknown
7:55 PM 61.9 °F - 52.9 °F 72% 30.17 in 10.0 mi South 3.5 mph - N/A   Unknown
8:15 PM 61.7 °F - 54.1 °F 76% 30.18 in 10.0 mi Calm Calm - N/A   Unknown
8:35 PM 58.1 °F - 51.6 °F 79% 30.18 in 10.0 mi Calm Calm - N/A   Unknown
8:55 PM 57.4 °F - 51.3 °F 80% 30.18 in 10.0 mi Calm Calm - N/A   Unknown
9:15 PM 54.5 °F - 50.5 °F 86% 30.19 in 10.0 mi Calm Calm - N/A   Unknown
9:35 PM 54.1 °F - 50.7 °F 88% 30.20 in 10.0 mi Calm Calm - N/A   Unknown
9:55 PM 53.8 °F - 50.0 °F 87% 30.20 in 10.0 mi Calm Calm - N/A   Unknown
10:15 PM 52.7 °F - 49.5 °F 89% 30.20 in 10.0 mi Calm Calm - N/A   Unknown
10:35 PM 51.8 °F - 48.7 °F 89% 30.20 in 10.0 mi Calm Calm - N/A   Unknown
10:55 PM 51.3 °F - 48.6 °F 90% 30.20 in 10.0 mi Calm Calm - N/A   Unknown
11:15 PM 50.9 °F - 48.4 °F 91% 30.19 in 10.0 mi Calm Calm - N/A   Unknown
11:35 PM 50.5 °F - 47.8 °F 90% 30.19 in 10.0 mi Calm Calm - N/A   Unknown
11:55 PM 50.5 °F - 48.2 °F 92% 30.18 in 10.0 mi Calm Calm - N/A   Unknown